Regional Weather Roundup
Issued by NWS

Home | Current Version | Previous Version | Text Only | Print | Product List | Glossary On
Versions: 1 2 3 4 5 6 7 8 9 10 11 12 13 14 15 16 17 18 19 20 21 22 23 24 25 26 27 28 29 30 31 32 33 34 35 36 37 38 39 40 41 42 43 44 45 46 47 48 49 50
000
ASUS44 KJAN 261403
RWRMS

MISSISSIPPI HOURLY WEATHER ROUNDUP
NATIONAL WEATHER SERVICE JACKSON MS
900 AM CDT SUN APR 26 2015

NOTE: "FAIR: INDICATES FEW OR NO CLOUDS BELOW 12,000 FEET WITH NO
SIGNIFICANT WEATHER AND/OR OBSTRUCTIONS TO VISIBILITY.

MSZ001>002-007>008-010>013-018>021-025>028-034>036-261500-
NORTHWEST MISSISSIPPI

CITY           SKY/WX    TMP DP  RH WIND       PRES   REMARKS
CLARKSDALE       N/A     66  63  88 N8        29.78R
CLEVELAND      FAIR      69  63  81 NE8       29.76R
GREENWOOD      MOSUNNY   70  63  78 CALM      29.75S
GREENVILLE     SUNNY     70  60  70 N9        29.75R
OLIVE BRANCH   PTSUNNY   61  61 100 N9        29.79R
OXFORD         FAIR      64  57  77 NE9       29.78R
TUNICA         PTSUNNY   64  59  82 N14       29.80R
$$

MSZ003>006-009-014>017-022>024-029>033-037>039-261500-
NORTHEAST MISSISSIPPI

CITY           SKY/WX    TMP DP  RH WIND       PRES   REMARKS
COLUMBUS AFB   MOSUNNY   70  70 100 NW9       29.74R
CORINTH        FAIR      64  57  77 N10       29.76R
GOLDN TRIANGLE MOSUNNY   70  64  83 NW9       29.74R
STARKVILLE     FAIR      70  64  83 W3        29.75R
TUPELO         SUNNY     69  59  70 NE8       29.75R
$$

MSZ040-058-261500-
CENTRAL MISSISSIPPI

CITY           SKY/WX    TMP DP  RH WIND       PRES   REMARKS
JACKSON INTL   SUNNY     74  67  78 NW7       29.76S
JACKSON HAWKNS SUNNY     72  66  81 NW9       29.76S
MERIDIAN KEY   MOSUNNY   71  66  84 W7        29.76S
MERIDIAN NAS   MOSUNNY   71  65  81 W7        29.75S
RAYMOND        FAIR      72  66  83 NW6       29.76S
VICKSBURG      MOSUNNY   72  67  84 VRB5      29.76F
$$

MSZ059>079-261500-
SOUTH MISSISSIPPI

CITY           SKY/WX    TMP DP  RH WIND       PRES   REMARKS
BROOKHAVEN       N/A    120 N/A N/A W5        29.79R
HATTIESBURG    SUNNY     76  67  73 W5        29.78R
MCCOMB         CLOUDY    68  68 100 NW7       29.78S FOG
NATCHEZ        CLOUDY    70  66  88 W3        29.77S
PINE BELT      SUNNY     72  63  73 CALM      29.78S
$$

MSZ080>082-261500-
COASTAL MISSISSIPPI

CITY           SKY/WX    TMP DP  RH WIND       PRES   REMARKS
BAY ST LOUIS   FOG       70  66  88 MISG      29.78S VSB 1/2
BILOXI         PTSUNNY   73  73  99 VRB2      29.77S
PASCAGOULA     SUNNY     73  71  93 W5        29.78S
GULFPORT       CLOUDY    71  70  96 CALM      29.77S FOG
$$


USA.gov is the U.S. government's official web portal to all federal, state and local government web resources and services.